TimeCST,TemperatureF,Dew PointF,Humidity,Sea Level PressureIn,VisibilityMPH,Wind Direction,Wind SpeedMPH,Gust SpeedMPH,PrecipitationIn,Events,Conditions,WindDirDegrees,DateUTC
12:52 AM,30.9,21.0,67,29.71,10.0,North,9.2,-,N/A,,Clear,360,2011-11-19 06:52:00
1:52 AM,30.9,19.9,64,29.68,10.0,NNE,12.7,-,N/A,,Clear,30,2011-11-19 07:52:00
2:52 AM,30.9,21.9,69,29.68,10.0,ENE,15.0,21.9,N/A,,Clear,60,2011-11-19 08:52:00
3:52 AM,30.9,23.0,72,29.67,10.0,ENE,13.8,23.0,N/A,,Mostly Cloudy,60,2011-11-19 09:52:00
4:28 AM,30.2,23.0,75,29.66,10.0,NE,13.8,19.6,N/A,,Overcast,40,2011-11-19 10:28:00
4:52 AM,30.9,21.9,69,29.70,10.0,NE,13.8,18.4,N/A,,Overcast,40,2011-11-19 10:52:00
5:52 AM,30.9,21.9,69,29.65,10.0,ENE,17.3,20.7,N/A,,Overcast,60,2011-11-19 11:52:00
6:52 AM,32.0,21.0,64,29.66,10.0,ENE,12.7,-,N/A,,Overcast,60,2011-11-19 12:52:00
7:52 AM,30.0,25.0,82,29.69,4.0,NNE,10.4,-,0.00,,Overcast,30,2011-11-19 13:52:00
7:58 AM,30.2,26.6,86,29.66,3.0,NNE,15.0,-,0.00,Rain,Light Freezing Rain,30,2011-11-19 13:58:00
8:16 AM,28.4,26.6,93,29.65,3.0,NNE,11.5,-,0.00,Rain,Light Freezing Rain,30,2011-11-19 14:16:00
8:52 AM,28.9,25.0,85,29.71,3.0,NNE,13.8,-,0.01,Rain,Light Freezing Rain,20,2011-11-19 14:52:00
9:52 AM,28.9,26.1,89,29.74,7.0,North,13.8,-,0.00,Rain,Light Freezing Rain,350,2011-11-19 15:52:00
10:03 AM,28.4,24.8,86,29.70,6.0,North,15.0,-,0.00,,Overcast,350,2011-11-19 16:03:00
10:18 AM,28.4,26.6,93,29.71,4.0,North,16.1,-,0.00,Rain,Light Freezing Rain,350,2011-11-19 16:18:00
10:29 AM,28.4,26.6,93,29.70,2.5,North,13.8,23.0,0.00,Rain,Light Freezing Rain,350,2011-11-19 16:29:00
10:39 AM,28.4,26.6,93,29.72,2.0,North,17.3,23.0,0.00,Snow,Light Snow,360,2011-11-19 16:39:00
10:52 AM,28.9,26.1,89,29.77,2.5,North,18.4,-,0.00,,Overcast,350,2011-11-19 16:52:00
11:04 AM,28.4,26.6,93,29.72,2.5,North,18.4,-,0.00,Rain,Light Freezing Rain,350,2011-11-19 17:04:00
11:06 AM,28.4,26.6,93,29.73,2.5,North,20.7,-,0.00,Rain,Light Freezing Rain,350,2011-11-19 17:06:00
11:52 AM,28.0,25.0,88,29.76,9.0,North,16.1,28.8,0.00,,Overcast,350,2011-11-19 17:52:00
12:52 PM,27.0,23.0,85,29.81,10.0,NNW,19.6,27.6,N/A,,Overcast,340,2011-11-19 18:52:00
1:52 PM,26.1,21.9,84,29.85,10.0,North,21.9,28.8,N/A,,Overcast,350,2011-11-19 19:52:00
2:52 PM,26.6,23.0,86,29.86,10.0,North,15.0,-,N/A,,Overcast,350,2011-11-19 20:52:00
3:52 PM,27.0,23.0,85,29.95,10.0,North,16.1,-,N/A,,Overcast,350,2011-11-19 21:52:00
4:20 PM,26.6,21.2,80,29.94,10.0,NNW,18.4,-,N/A,,Overcast,340,2011-11-19 22:20:00
4:28 PM,26.6,21.2,80,29.95,10.0,NNW,17.3,-,N/A,,Overcast,340,2011-11-19 22:28:00
4:52 PM,25.0,21.0,85,30.01,10.0,NNW,18.4,-,N/A,,Overcast,340,2011-11-19 22:52:00
5:16 PM,24.8,19.4,80,29.98,10.0,NNW,17.3,-,N/A,,Overcast,330,2011-11-19 23:16:00
5:52 PM,25.0,19.0,78,30.06,10.0,NNW,19.6,27.6,N/A,,Overcast,340,2011-11-19 23:52:00
6:21 PM,24.8,19.4,80,30.04,10.0,NNW,15.0,21.9,N/A,,Overcast,330,2011-11-20 00:21:00
6:52 PM,25.0,19.0,78,30.12,10.0,NNW,17.3,-,N/A,,Overcast,330,2011-11-20 00:52:00
7:52 PM,25.0,18.0,75,30.16,10.0,NNW,18.4,24.2,N/A,,Overcast,340,2011-11-20 01:52:00
8:52 PM,24.1,18.0,77,30.19,10.0,NNW,17.3,-,N/A,,Overcast,340,2011-11-20 02:52:00
9:52 PM,23.0,17.1,78,30.22,10.0,NNW,15.0,24.2,N/A,,Overcast,330,2011-11-20 03:52:00
10:02 PM,21.2,17.6,86,30.17,10.0,NW,15.0,-,N/A,,Overcast,320,2011-11-20 04:02:00
10:52 PM,21.0,16.0,81,30.24,10.0,NNW,12.7,-,N/A,,Mostly Cloudy,330,2011-11-20 04:52:00
11:17 PM,21.2,15.8,80,30.19,10.0,NNW,13.8,-,N/A,,Mostly Cloudy,340,2011-11-20 05:17:00
11:36 PM,19.4,15.8,86,30.21,10.0,NNW,11.5,-,N/A,,Scattered Clouds,330,2011-11-20 05:36:00
11:52 PM,19.9,15.1,81,30.26,10.0,NNW,13.8,-,N/A,,Clear,330,2011-11-20 05:52:00